Regional Weather Roundup
Issued by NWS

Home | Current Version | Previous Version | Text Only | Print | Product List | Glossary Off
Versions: 1 2 3 4 5 6 7 8 9 10 11 12 13 14 15 16 17 18 19 20 21 22 23 24 25 26 27 28 29 30 31 32 33 34 35 36 37 38 39 40 41 42 43 44 45 46 47 48 49 50

756
ASUS45 KABQ 011601
RWRNM
NEW MEXICO REGIONAL WEATHER ROUNDUP
NATIONAL WEATHER SERVICE ALBUQUERQUE NM
1000 AM MDT SUN MAY 01 2016

NOTE: "FAIR" MEANS FEW OR NO CLOUDS BELOW 12,000 FEET AGL WITH NO
       SIGNIFICANT WEATHER OR OBSTRUCTIONS TO VISION.

      THIS PRODUCT IS RELEASED AS TWO VERSIONS.  ONE VERSION NEAR
      THE TOP OF THE HOUR CONTAINING PRELIMINARY DATA FROM ALBUQUERQUE
      AND OTHER STATIONS.  A FINAL VERSION WITH ADDITIONAL DATA IS
      ISSUED ABOUT 10 MINUTES AFTER THE HOUR.

NMZ501-503-504-510>518-011700-
NORTHWEST PLATEAU/NORTHCENTRAL MOUNTAINS

CITY           SKY/WX    TMP DP  RH WIND       PRES   REMARKS
FARMINGTON     CLOUDY    43  38  82 E16       30.03R
SANTA FE       CLOUDY    39  33  79 N8        30.12R WCI  33
TAOS           CLOUDY    30  25  80 N8        30.14S WCI  23

$$
NMZ402-403-502-505>509-011700-
WESTCENTRAL MOUNTAINS/SOUTHWEST MOUNTAINS

CITY           SKY/WX    TMP DP  RH WIND       PRES   REMARKS
GALLUP         PTSUNNY   45  38  76 SE16      29.99R
GRANTS         LGT RAIN  34  33  98 S10       30.06S WCI  26
SILVER CITY      N/A     57  25  28 S22       30.01R

$$
NMZ407-409-411-412-011700-
SOUTHERN DESERTS

CITY           SKY/WX    TMP DP  RH WIND       PRES   REMARKS
LORDSBURG      FAIR      61  30  31 S12G20    29.96R
DEMING         FAIR      62  28  27 E8        29.98S
HOLLOMAN AFB   CLOUDY    59  35  40 W8        30.02R
ALAMOGORDO     FAIR      59  32  36 N13       30.03S
T OR C         FAIR      57  32  38 NE16      30.00S

$$
NMZ519>523-011700-
CENTRAL VALLEYS/CENTRAL HIGHLANDS

CITY           SKY/WX    TMP DP  RH WIND       PRES   REMARKS
ALBUQUERQUE    PTSUNNY   47  29  49 E28G37    30.07R
DOUBLE EAGLE   PTSUNNY   45  34  65 E23G29    30.08R
CLINES CORNERS LGT SNOW  31  28  89 E22G31    30.13R FOG     WCI  18
BELEN          FAIR      51  30  43 SE26G33   30.06R
SOCORRO        NOT AVBL

$$
NMZ524>526-539-540-011700-
SOUTHCENTRAL MOUNTAINS

CITY           SKY/WX    TMP DP  RH WIND       PRES   REMARKS
RUIDOSO        NOT AVBL

$$
NMZ527>531-011700-
NORTHEAST HIGHLANDS/NORTHEAST PLAINS

CITY           SKY/WX    TMP DP  RH WIND       PRES   REMARKS
RATON          PTSUNNY   37  26  64 N28G38    30.17S WCI  25
CLAYTON        CLOUDY    40  30  67 N25G36    30.18R WCI  29

$$
NMZ532>537-011700-
EASTCENTRAL PLAINS

CITY           SKY/WX    TMP DP  RH WIND       PRES   REMARKS
TUCUMCARI      LGT RAIN  42  37  82 N18       30.21R
CANNON AFB     NOT AVBL
CLOVIS AIRPORT CLOUDY    39  34  81 N24G30    30.20R WCI  28

$$
NMZ028-029-538-011700-
SOUTHEAST PLAINS

CITY           SKY/WX    TMP DP  RH WIND       PRES   REMARKS
ROSWELL        CLOUDY    40  36  86 N15       30.22R WCI  32
ARTESIA        CLOUDY    43  36  75 N20G25    30.21R
CARLSBAD       CLOUDY    49  33  54 N17       30.16R
HOBBS          CLOUDY    46  32  57 N16       30.16R


$$




USA.gov is the U.S. government's official web portal to all federal, state and local government web resources and services.